Location: Ahausen
(50.4985°N, 8.2722°E)
Time: 06:29:16
(UTC+00:00)

CREW DRAGON DEMO-1 DEB - Pass Details

Date: 18 September 2020
Orbit: 362 x 364 km, 51.6° (Epoch: 21 October)

Event Time Altitude Azimuth Distance (km) Brightness Sun altitude
Rises 18:36:29 0° 271° (W) 2,197 8.4 -10.7°
Reaches altitude 10° 18:38:31 10° 274° (W) 1,351 7.1 -11.1°
Maximum altitude 18:41:31 68° 358° (N) 397 2.9 -11.5°
Enters shadow 18:43:34 19° 79° (E) 962 4.3 -11.8°
